Terminal Aerodrome Forecast
Issued by NWS

Home | Current Version | Previous Version | Text Only | Print | Product List | Glossary On
Versions: 1 2 3 4 5 6 7 8 9 10 11 12 13 14 15 16 17 18 19 20 21 22 23 24 25 26 27 28 29 30 31 32 33 34 35 36 37 38 39 40 41 42 43 44 45 46 47 48 49 50
480
FTUS41 KCTP 271756
TAFBFD
TAF
KBFD 271756Z 2718/2818 24008G14KT P6SM SCT080
     FM272300 16004KT P6SM BKN080
     FM280400 16003KT P6SM OVC035
     FM281200 17006KT P6SM OVC050=

USA.gov is the U.S. government's official web portal to all federal, state and local government web resources and services.